Location: Les Jeannots
(43.2262°N, 5.5774°E)
Time: 02:53:53
(UTC+00:00)

Cosmos 1959 Rocket - Pass Details

Date: 05 July 2020
Orbit: 948 x 996 km, 82.9° (Epoch: 04 August)

Event Time Altitude Azimuth Distance (km) Brightness Sun altitude
Exits shadow 23:06:19 50° 155° (SSE) 1,200 4.5 -23.6°
Maximum altitude 23:07:51 69° 94° (E) 1,024 4.5 -23.6°
Drops below altitude 10° 23:14:00 10° 13° (NNE) 2,713 7.8 -23.8°
Sets 23:16:32 0° 11° (N) 3,671 8.7 -23.8°
